Погода в Крестово-Городище

Россия / Ульяновская область     54°11′02″N   48°37′32″E
темп.,
°C
ветер,
м/с
пор.,
м/с
влажн.,
%
обл.,
%
осадки,
мм/ч
давл.,
гПа
погр.,
м
18 мая, ср
ср1801:00+6зюз228948 0.0 100217
04:00+5зюз228952 0.0 100110
07:00+8зсз3485100 0.0 1002230
10:00+10з3575100 0.0 1002892
13:00+9зсз7985100 0.7 1003951
16:00+8сз61091100 1.4 1006818
19:00+9зсз488662 0.1 1007748
22:00+7зсз359372 0.2 100986
19 мая, чт
чт1901:00+6з339292 0.2 100937
04:00+6зсз4690100 0.5 1009130
07:00+7зсз4987100 0.0 1010742
10:00+8з6980100 0.3 10101040
13:00+10зсз7864100 0.1 10111468
16:00+11зсз6858100 0.2 10111640
19:00+8сз6987100 0.4 1010471
22:00+6зсз479246 1.3 1011239
20 мая, пт
пт2001:00+4сз35935 0.0 101180
04:00+3сз36935 0.0 1011103
07:00+6сз3583100 0.0 1012358
10:00+5ссз6691100 0.4 1012685
13:00+9сз566548 0.4 10121327
16:00+11сз684981 0.4 10102201
19:00+8ссз6106875 0.5 1010779
22:00+5сз510845 0.8 1011239
21 мая, сб
сб2101:00+4сз59895 0.0 1010278
04:00+3сз599354 0.0 1010291
07:00+5сз588453 0.0 1010637
10:00+8зсз586339 0.1 10091290
13:00+10зсз575697 0.4 10071646
16:00+10ссз565787 1.1 10071438
19:00+8с466359 0.1 10061203
22:00+3ссв47785 0.1 1006138
22 мая, вс
вс2201:00+2с48895 0.0 1005194
04:00+1с499454 0.0 1004324
07:00+2с7979100 0.1 1004955
10:00+4с71073100 0.1 10041366
13:00+6с81168100 0.1 10041571
16:00+7ссз8116899 0.4 10051392
19:00+6ссз7117576 0.3 10061043
22:00+3с5118576 0.4 1007334